Location: Grange Rosano
(44.4500°N, 6.9667°E)
Time: 21:24:21
(UTC+00:00)

Cosmos 407 Rocket - Pass Details

Date: 26 May 2022
Orbit: 743 x 786 km, 74.0° (Epoch: 01 July)

Event Time Altitude Azimuth Distance (km) Brightness Sun altitude
Rises 02:45:27 0° 338° (NNW) 3,280 7.1 -10.6°
Reaches altitude 10° 02:47:52 10° 338° (NNW) 2,344 6.3 -10.3°
Maximum altitude 02:53:12 86° 252° (WSW) 784 3.5 -9.6°
Drops below altitude 10° 02:58:27 10° 163° (SSE) 2,302 5.7 -8.9°
Sets 03:00:47 0° 163° (SSE) 3,217 6.5 -8.6°
